sat.trackr.live / text

‹ back to catalog

ONEWEB-0662

NORAD 55822 · 2023-029AC

PAYLOAD ACTIVE UNKNOWN

§ Identity

Operator
Country
UK
Launch date
2023-03-09
Launch site
AFETR
Launch vehicle
Mass (kg)
RCS (m²)

Purposes: comms

External: N2YO · Heavens-Above · Gunter

§ Orbital elements

Epoch: 2026-05-25T03:11:07.788192Z

Period
109.55 min
Inclination
87.8931°
Eccentricity
0.0001758
Mean motion
13.14501447 rev/d
Perigee alt
1,204.5 km
Apogee alt
1,207.1 km
Semi-major
7,583.9 km
B*
-5.5265e-4
RAAN
294.3492°
Arg perigee
86.6894°
Mean anomaly
273.4437°
Rev number
15,640

§ Raw data

ONEWEB-06621 55822U 23029AC  26145.13272903 -.00000192  00000+0 -55265-3 0  99922 55822  87.8931 294.3492 0001758  86.6894 273.4437 13.14501447156401

JSON: /api/v1/satellites/55822 · /tle

For live sub-satellite position, see the globe view (requires WebGL).

§ Visibility from observer

Set your observer location to see the next 7 days of passes ≥ 10°. The values pass through the URL so the page stays shareable.

No JS? Fill the form by hand. The geolocation button needs JavaScript.